www.pogodaiklimat.ru

ПОГОДА в Ардморе, OK

  • Прогноз погоды в Ардморе
  • Монитор погоды в Ардморе
  • Климат в Ардморе

АРХИВ ПОГОДЫ в Ардморе

Время (UTC), дата Ветер
(напр.,м/с)
 
Видим.   Явления Облачность Т
(С)
Тd
(С)
f
(%)
Тe
(С)
Тes
(С)
Комфортность

P
(гПа)

Po
(гПа)
Тmin
(С)
Tmax
(С)
R
(мм)
SD
(см)
06:55 21.05 ЮВ  5
{8} 
16 км    8/8 990 м  +24.5  +20.2  77  +30  +30  очень
душно 
  973.7         
07:15 21.05 Ю  16 км    10/10 960 м  +24.3  +20.3  78  +30  +30  очень
душно 
  975.0         
07:35 21.05 Ю  16 км    10/8 840 м
[средняя] 
+24.1  +20.3  79  +30  +30  очень
душно 
  975.0         
07:55 21.05 ЮВ  16 км  слабый дождь  10/8 930 м
[средняя] 
+24.0  +20.5  81  +30  +30  очень
душно 
  975.0         
08:15 21.05 ЮВ  16 км    10/5 1290 м
[средняя] 
+24.0  +20.5  81  +30  +30  очень
душно 
  975.0         
08:35 21.05 ЮВ  16 км    10/0 2100 м
[средняя] 
+23.7  +20.3  81  +29  +29  душно    974.0         
08:55 21.05 ЮВ  16 км    10/8 1950 м
[средняя] 
+23.9  +20.4  81  +30  +30  очень
душно 
  973.3         
09:15 21.05 З  4
{7} 
5 км    10/10 150 м  +18.2  +17.2  94  +18  +18      974.6         
09:35 21.05 СЗ  11 км  сильный дождь  10/10 420 м  +17.9  +17.1  95  +18  +18      974.6         
09:55 21.05 СВ  16 км  дождь  10/10 540 м  +17.9  +17.4  97  +18  +18      973.7         
10:15 21.05 С  3 км  сильный дождь  10/10 210 м  +17.8  +17.3  97  +19  +19      973.7         
10:35 21.05   8 км  слабый дождь  10/8 390 м
[средняя] 
+17.5  +17.2  98  +17  +17      973.3         
10:55 21.05 ЮВ  11 км  гроза с дождем  10/8 510 м
[средняя] 
+17.0  +17.0  100  +17  +17      974.3         
11:55 21.05 Ю  11 км  дождь  10/8 450 м
[средняя] 
+17.0  +17.0  100  +17  +17      974.6         
12:55 21.05 Ю  11 км  слабый дождь  10/10 210 м  +18.0  +17.0  94  +18  +18      974.0         
13:55 21.05 ЮЗ  16 км    8/8 270 м
[средняя] 
+18.0  +17.0  94  +18  +18      974.6         
14:55 21.05 ЮЗ  4
{8} 
16 км  слабый дождь  10/10 390 м  +19.0  +18.0  94  +20  +20      974.6         
15:55 21.05 ЮЗ  6
{9} 
16 км    8/0 3600 м
[средняя] 
+19.0  +17.0  88  +20  +22      974.0         
16:55 21.05 Ю  6
{8} 
16 км    ясно  +21.0  +17.0  78  +25  +29  комфорт    974.0         
17:55 21.05 ЮЗ  9
{12} 
16 км    ясно  +24.0  +11.0  44  +25  +26  комфорт    974.0         
18:55 21.05 ЮЗ  9
{13} 
16 км    ясно  +25.0  +9.0  36  +26  +26  жарко    974.0         
19:55 21.05 ЮЗ  6
{11} 
16 км    ясно  +26.0  +9.0  34  +26  +31  жарко    973.7         
20:55 21.05 ЮЗ  7
{11} 
16 км    ясно  +26.0  +9.0  34  +26  +29  жарко    973.7         
21:55 21.05 ЮЗ  16 км    ясно  +26.0  +9.0  34  +26  +28  жарко    974.0         
22:55 21.05 Ю  16 км    ясно  +25.0  +9.0  36  +26  +27  жарко    973.7         
23:55 21.05 Ю  16 км    ясно  +23.0  +11.0  47  +25  +27  комфорт    974.0         
00:55 22.05 ЮВ  16 км    ясно  +20.0  +13.0  64  +23  +23  комфорт    974.6         
01:55 22.05 Ю  16 км    ясно  +20.0  +12.0  60  +22  +22  комфорт    975.3         
02:55 22.05 Ю  16 км    ясно  +20.9  +10.3  51  +23  +23  комфорт    975.6         
03:15 22.05 Ю  16 км    8/0 2250 м
[средняя] 
+20.7  +10.0  50  +22  +22  комфорт    976.0         
03:35 22.05 Ю  16 км    5/0 2250 м
[средняя] 
+20.7  +9.8  50  +23  +23  комфорт    976.3         
03:55 22.05 Ю  16 км    ясно  +20.1  +9.9  52  +22  +22  комфорт    976.3         
04:15 22.05 Ю  16 км    5/0 2700 м
[средняя] 
+19.4  +9.9  54  +21  +21  комфорт    976.6         
04:35 22.05 Ю  16 км    8/0 2700 м
[средняя] 
+19.2  +9.8  54  +20  +20      976.6         
04:55 22.05 ЮВ  16 км    8/0 2700 м
[средняя] 
+19.0  +9.9  56  +21  +21  комфорт    976.6  +18.3  +25.1     
05:15 22.05   16 км    5/0 2700 м
[средняя] 
+17.1  +10.7  66  +17  +17      976.6         
05:35 22.05 В  16 км    5/0 2700 м
[средняя] 
+15.6  +10.7  73  +16  +16      976.6         
05:55 22.05   16 км    ясно  +16.4  +11.1  71  +16  +16      976.6         
06:15 22.05   16 км    ясно  +17.2  +12.0  71  +17  +17      977.0         
06:35 22.05 СВ  16 км    ясно  +16.7  +12.4  76  +17  +17      977.0         
06:55 22.05 В  16 км    ясно  +16.8  +13.0  78  +17  +17      977.3         
07:15 22.05 В  16 км    ясно  +16.4  +13.4  82  +17  +17      977.3         
07:35 22.05 В  16 км    ясно  +16.1  +13.5  85  +16  +16      977.3         
07:55 22.05   16 км    ясно  +16.8  +13.8  82  +17  +17      977.3         
08:15 22.05 В  16 км    ясно  +15.6  +13.7  88  +15  +15      977.3         
08:35 22.05   16 км    ясно  +16.8  +14.3  85  +17  +17      977.6         
08:55 22.05 В  16 км    ясно  +16.5  +14.2  86  +17  +17      977.6         
09:15 22.05 ЮВ  16 км    5/5 600 м  +17.2  +14.8  86  +18  +18      977.9         

 

Местоположение метеостанции Ardmore Municipal Airport: широта 34.3031 долгота -97.0194 высота над уровнем моря 232 м.

В архиве по умолчанию представлена погода в Ардморе за последние 1-2 суток. Обновление информации о фактической погоде в базе происходит ежечасно! Архивные данные за месяц целиком и за предыдущие месяцы Вы можете получить, выбрав интересующий диапазон дат из раскрывающегося списка и нажав кнопку "Ввод!".

Внимание! Архив погоды МЕТАР в базе сайта хранится не более 60 дней. Нет смысла пытаться выбрать более раннюю дату.

Внимание! Время в таблицах - всемирное. Для получения местного времени необходимо прибавить поправку, которая в Ардморе равна -6 ч.

Ветер - указаны скорость ветра в м/с и направление, откуда дует ветер: С - северный, СВ - северо-восточный, В - восточный, ЮВ - юго-восточный, Ю - южный, ЮЗ - юго-западный, З - западный, СЗ - северо-западный.
Видимость - горизонтальная дальность видимости в метрах или километрах. При видимости от 1 до 10 км при отсутствии осадков обычно наблюдается дымка, при ухудшении видимости до 1 км и менее - туман. В сухую погоду видимость может ухудшаться дымом, пылью или мглою.
Атмосферные явления - указаны явления, наблюдавшиеся в указанный момент времени.
Облачность - указаны через наклонную черту верхняя и нижняя облачность в баллах и высота нижней границы облаков в метрах. Внимание: облачность, как и прочие метеорологические величины в США измеряются автоматическими метеостанциями. Указанные значения в баллах носят условный характер и показывают процент времени, в течение которого, в среднем, лазерный луч высотомера отражался от облаков обратно.
T - Температура воздуха - температура, измеренная на высоте 2 м над землей.
Td - Температура точки росы - температура, при понижении до которой содержащийся в воздухе водяной пар достигнет насыщения.
f - Относительная влажность воздуха - влажноcть воздуха, измеренная на высоте 2 м над землей.
Te - Эффективная температура - температура, которую ощущает одетый по сезону человек в тени. Характеристика душности погоды. При расчете учитывается влияние влажности воздуха и скорости ветра на теплоощущения человека.
Tes - Эффективная температура на солнце - температура, которую ощущает человек, с поправкой на солнечный нагрев. Характеристика знойности погоды. Зависит от высоты солнца над горизонтом, облачности и скорости ветра. Ночью, в пасмурную погоду, а также при ветре 12 м/с и более поправка равна нулю.
P - Атмосферное давление - приведенное к уровню моря атмосферное давление.
Po - Атмосферное давление - измеренное на уровне метеостанции атмосферное давление.
Tmin - Минимальная температура - минимум температуры воздуха на высоте 2 м над землей.
Tmax - Максимальная температура - максимум температуры воздуха на высоте 2 м над землей.
R - Количество осадков - Количество выпавших осадков за 3 или 6 часов, мм.
SD - Снежный покров - Высота снежного покрова, см.